Theta_e
313 313 313 313 313 314 313 313 312 312 312 313 313 313 314 315 315 309 305 309 306 303 301 305 305 301 301 300 297 301 303 306 309 303 300 301 301 303 301 304 302 301 300 300 299 298 295 317 315 306 308 314 321 320
313 313 312 312 312 312 312 312 312 312 312 313 313 313 314 315 315 313 301 308 312 305 300 307 307 308 307 306 300 300 300 301 305 302 307 307 307 308 305 301 308 301 305 304 305 305 313 316 313 317 315 314 320 319
311 311 311 311 311 311 311 312 312 312 313 313 313 313 314 315 315 312 303 304 305 301 301 300 301 306 309 309 310 299 302 305 301 304 303 308 306 311 304 306 307 312 312 307 308 313 316 319 320 322 322 321 323 323
312 312 312 312 312 312 312 312 312 312 312 313 313 313 314 315 314 314 304 304 308 305 295 296 308 303 309 306 308 309 305 306 302 302 300 304 305 311 306 309 309 312 312 309 309 313 315 319 320 322 325 325 324 326
313 313 313 313 313 313 313 313 313 312 312 312 313 313 314 314 313 313 311 308 310 305 298 299 304 305 305 305 306 308 306 301 298 297 300 301 306 304 307 311 309 314 310 307 307 313 312 315 323 329 324 323 325 325
312 313 313 313 313 313 313 313 313 313 313 312 313 313 313 314 313 309 301 306 311 310 303 293 300 301 304 305 305 305 306 300 299 297 298 304 306 303 301 305 315 316 317 317 314 319 321 322 326 329 326 326 328 329
312 313 313 313 313 313 313 313 313 313 313 313 313 313 313 312 310 303 301 307 308 310 301 295 294 302 305 302 302 302 303 301 300 297 296 297 300 302 301 302 312 317 318 319 319 322 318 323 320 327 328 330 330 336
313 313 313 313 313 312 313 313 313 313 313 313 313 312 312 312 310 305 308 311 310 307 304 293 293 297 302 299 299 302 300 299 298 298 298 296 298 300 298 304 308 314 321 320 319 323 323 323 324 327 330 331 328 328
313 313 313 313 313 312 312 312 313 312 312 312 312 313 310 306 304 305 314 314 312 306 298 294 291 292 305 301 301 300 301 296 301 297 296 298 296 294 300 305 311 319 320 321 318 321 324 322 321 326 329 328 325 326
313 313 313 313 313 312 311 312 312 311 312 312 308 303 299 303 313 312 306 302 300 299 298 295 298 292 299 300 301 298 297 296 295 298 300 295 294 301 304 308 310 313 320 322 317 317 319 321 323 323 323 328 327 329
312 312 312 312 313 313 312 311 311 311 311 305 301 299 307 313 306 302 297 295 295 294 298 298 296 295 300 296 300 304 297 297 294 298 297 296 295 301 305 306 309 311 316 326 326 326 324 325 327 327 328 329 326 334
312 312 312 311 313 313 312 310 311 305 306 305 305 309 307 303 299 295 294 296 294 294 298 295 298 299 299 301 305 307 302 303 295 302 298 295 300 305 307 308 309 310 322 330 331 331 328 329 330 331 330 330 330 334
311 311 311 312 312 312 312 311 311 310 310 308 303 299 297 295 290 289 289 291 292 297 298 301 298 299 301 304 305 305 298 298 304 299 297 299 302 305 306 310 311 312 325 329 329 329 330 330 330 328 327 329 335 336
311 311 311 311 312 311 312 311 311 310 306 299 296 287 291 291 291 292 291 293 299 301 301 304 302 299 299 300 302 298 300 301 297 296 297 300 310 314 312 313 315 323 328 325 324 325 327 325 324 326 327 328 334 333
310 311 311 311 312 311 310 311 311 308 302 297 296 289 291 295 298 302 301 302 305 306 303 301 303 302 297 297 302 299 298 296 297 297 303 314 318 323 319 318 320 323 324 322 322 321 323 323 323 322 324 326 333 333
310 310 310 311 311 311 310 310 309 307 303 297 297 294 296 296 295 302 300 300 303 304 305 303 301 297 296 297 298 298 298 297 300 308 311 316 319 321 321 322 321 321 322 321 321 323 323 322 321 322 325 324 328 334
309 306 311 311 311 310 310 306 305 301 299 297 294 298 298 297 296 298 301 301 304 302 299 300 296 297 300 297 297 299 297 300 309 312 314 318 319 321 320 320 320 320 318 319 321 323 323 325 324 324 321 323 328 334
306 310 312 312 310 308 306 304 301 300 296 296 293 295 297 300 298 300 302 304 302 300 300 299 301 297 296 296 296 300 302 310 312 313 314 316 321 323 324 319 320 319 319 319 319 324 326 327 326 327 328 330 332 330
308 309 311 311 308 305 301 301 301 293 296 297 298 299 298 299 301 302 305 306 306 306 304 300 298 296 297 301 304 306 308 309 309 311 313 315 317 320 322 321 320 320 321 320 319 325 326 326 326 329 330 330 328 328
309 310 311 311 311 303 299 299 304 296 293 295 297 296 299 301 303 305 306 305 304 303 299 299 299 303 304 307 309 309 310 313 310 308 309 311 316 314 316 320 321 320 321 320 321 316 323 323 326 329 329 327 326 325
309 309 310 311 306 304 301 299 298 298 298 295 301 301 300 303 304 304 303 307 303 301 301 304 303 306 310 310 311 311 311 311 310 310 310 311 313 314 316 320 320 321 322 320 320 320 320 324 326 328 326 326 327 327
308 311 308 308 303 302 299 302 299 302 299 299 301 303 301 300 302 304 302 300 301 303 305 304 305 306 307 307 308 310 311 312 312 311 307 308 311 312 314 319 323 321 321 324 325 324 325 325 325 326 327 324 323 322
309 308 304 303 297 295 294 302 296 298 294 298 302 300 300 300 303 305 298 301 301 304 304 304 306 307 307 311 310 312 312 313 313 312 312 313 315 317 318 321 324 325 323 324 325 323 322 317 320 326 325 324 323 321
310 303 298 295 295 291 296 293 298 297 299 297 298 297 299 300 303 299 295 298 303 304 304 304 307 311 311 311 314 314 316 315 316 317 315 312 313 320 320 322 327 328 326 327 325 325 324 323 317 324 325 324 323 323
297 296 297 292 297 294 294 294 295 297 296 298 298 298 299 302 298 297 297 297 300 302 305 309 311 312 311 313 315 317 320 317 315 312 317 320 319 317 316 323 327 326 329 325 323 324 325 325 325 323 322 322 321 321
295 304 296 302 298 296 300 297 297 298 300 299 300 301 302 300 297 295 299 302 304 306 307 309 309 309 312 316 315 317 320 321 319 319 321 321 322 320 319 321 320 323 327 327 325 324 323 323 322 321 321 318 310 321
297 304 309 312 309 307 306 306 306 304 302 300 300 300 300 297 297 301 306 308 308 310 312 313 312 312 312 313 316 319 323 323 322 321 324 324 323 324 323 321 320 323 326 327 326 324 322 321 321 322 321 320 321 321
306 307 303 305 306 307 304 304 303 303 305 306 305 301 299 300 301 307 309 312 313 314 313 313 313 312 312 312 314 318 320 322 323 324 324 324 325 326 325 325 325 310 325 327 327 325 323 322 322 322 321 319 320 322
306 306 308 304 305 304 303 302 301 303 308 307 304 302 303 307 310 309 310 312 313 312 310 309 310 313 310 307 306 306 305 307 310 309 308 307 310 313 317 318 317 318 317 316 307 312 321 324 324 323 324 323 322 321
307 307 304 303 302 301 304 305 305 307 307 306 306 305 306 307 310 313 311 311 310 309 309 304 305 304 303 302 302 302 303 304 305 303 300 298 298 300 302 303 306 311 315 315 313 312 306 311 309 314 317 316 317 316
309 306 305 304 303 305 308 309 310 311 310 308 310 307 307 309 312 313 310 310 311 307 303 302 302 303 302 301 299 298 297 299 299 299 299 298 300 300 300 301 302 302 303 304 307 309 310 309 309 308 308 309 310 312
309 308 303 302 304 309 310 309 307 308 308 307 306 306 306 306 303 308 314 312 307 303 302 304 303 302 302 302 300 298 296 295 296 298 299 299 299 299 298 297 298 300 301 301 301 301 303 303 302 303 305 306 306 306
307 307 307 307 305 306 307 306 305 307 307 306 307 308 308 307 305 313 318 316 309 306 305 305 306 306 304 303 301 299 298 297 295 294 294 295 295 297 296 296 297 299 299 298 299 300 300 301 301 301 301 302 302 301
Wind_Speed
11 13 13 14 14 14 13 14 14 14 15 15 15 14 14 12 8 1 5 4 3 4 7 8 7 7 4 1 2 7 6 6 5 6 2 4 4 5 2 3 2 4 4 1 2 2 2 6 7 2 4 6 9 4
12 13 14 15 14 14 15 15 15 15 15 15 14 14 14 12 9 3 3 3 4 4 7 8 15 16 16 14 2 5 3 3 1 4 3 3 2 3 1 3 5 1 4 6 7 7 5 4 5 8 4 5 11 12
14 15 15 16 16 16 16 17 17 17 16 15 13 14 14 13 10 7 3 2 3 3 7 4 11 10 11 18 13 4 4 1 3 2 2 4 2 3 2 3 3 4 4 4 4 4 5 9 3 8 11 11 13 4
15 16 15 15 15 16 16 16 15 15 15 14 14 14 14 12 8 6 3 3 2 3 4 8 4 8 12 5 11 15 6 6 3 3 2 2 1 2 2 4 3 5 3 2 3 7 9 8 5 4 11 10 17 5
14 14 15 15 16 16 17 16 15 15 14 13 12 12 12 10 8 4 3 4 5 3 4 7 17 13 10 7 11 12 11 6 1 2 1 3 3 4 3 0 4 4 6 5 7 7 4 9 5 5 9 13 6 9
13 12 11 12 13 13 14 14 14 13 13 13 13 13 11 8 5 1 3 2 7 4 4 5 6 7 6 4 7 7 9 4 4 5 4 3 4 4 1 3 5 4 4 6 5 6 9 10 14 5 4 15 15 11
12 12 11 10 12 12 13 12 11 12 11 11 12 11 7 5 3 3 2 2 3 1 2 5 6 7 6 5 1 3 3 4 5 4 3 3 3 4 2 4 4 7 6 5 6 2 8 6 7 6 13 15 20 23
10 11 11 10 11 10 12 10 10 8 8 8 7 5 4 5 1 3 3 2 2 2 1 4 6 5 2 3 3 2 3 2 1 5 1 3 1 4 5 8 10 8 7 7 12 12 6 3 8 10 11 13 15 23
10 10 10 11 11 9 8 3 6 4 2 5 5 7 3 1 2 2 3 5 2 3 2 2 3 5 7 3 2 2 4 2 3 4 4 5 3 6 11 10 10 7 9 7 8 8 3 3 7 6 9 17 10 28
11 10 10 10 9 6 3 2 4 6 6 7 2 0 0 2 3 1 3 1 2 2 1 4 3 4 4 4 3 4 1 5 2 7 4 5 5 12 10 12 9 7 8 5 4 5 7 4 6 10 7 6 8 11
11 12 11 7 7 8 5 5 7 6 5 1 0 1 1 7 1 1 2 2 2 3 4 5 6 4 4 2 3 2 4 3 3 6 6 4 5 13 22 23 20 14 7 10 10 6 9 4 10 9 11 4 4 8
10 11 12 9 9 7 7 10 11 3 2 3 2 1 1 2 1 2 3 2 4 4 4 4 5 5 4 3 1 3 2 1 5 1 3 4 7 9 9 16 21 22 9 6 5 8 8 12 7 6 8 17 9 13
10 10 12 11 9 4 9 12 12 3 4 0 1 1 2 1 2 3 5 3 3 3 4 3 2 4 2 1 2 2 1 5 4 1 5 7 6 7 11 9 13 6 13 15 11 10 18 15 15 16 19 26 17 16
11 10 8 7 5 8 12 12 10 5 2 2 2 1 3 4 5 5 4 4 5 4 5 3 2 4 4 3 4 2 5 2 3 3 6 4 6 8 12 9 6 11 17 16 15 13 15 14 13 16 17 18 12 10
10 10 7 3 5 5 6 3 5 2 1 2 2 4 7 6 4 5 7 3 3 2 3 2 2 1 2 2 3 1 1 4 5 6 4 5 8 11 8 2 9 11 13 14 13 15 18 18 18 19 25 4 6 10
9 10 3 6 8 6 5 1 1 2 2 2 4 4 5 3 3 2 2 3 2 2 2 2 2 3 4 4 2 6 3 4 3 3 4 5 8 9 6 5 5 4 9 12 8 15 17 18 19 16 18 25 15 10
4 3 3 6 10 7 4 1 0 3 3 4 5 4 7 6 5 4 2 3 1 2 1 2 3 6 3 2 3 4 5 4 2 3 4 6 7 8 2 2 6 6 5 5 10 11 11 12 14 15 17 16 18 19
5 3 4 9 9 4 1 1 1 3 5 5 4 5 4 3 3 4 3 2 4 3 2 5 2 3 5 4 2 4 3 2 3 4 4 6 10 8 4 6 3 4 7 7 6 8 11 12 14 11 12 12 12 12
4 6 6 16 6 4 3 3 3 4 6 4 4 4 4 5 5 6 4 3 4 3 2 2 4 4 5 3 1 3 2 1 2 3 4 4 6 9 5 2 3 4 6 7 6 6 8 9 7 7 7 8 8 7
9 11 9 15 6 2 2 3 0 3 4 4 3 4 4 4 5 4 4 3 4 4 3 4 5 4 3 3 3 4 3 2 2 4 4 3 3 5 5 6 4 4 3 1 5 5 5 4 4 7 7 8 9 8
5 4 5 6 2 1 1 2 3 4 4 4 3 3 5 3 4 3 3 2 3 4 4 5 5 4 4 2 2 2 3 3 3 3 4 5 3 4 5 2 0 2 0 3 3 3 4 5 6 8 9 8 8 8
3 9 3 2 1 3 2 3 3 3 3 4 4 3 4 3 3 1 2 1 4 4 3 0 3 3 4 6 5 4 5 6 7 5 7 6 4 3 4 3 3 5 5 4 5 7 6 5 5 6 8 6 8 7
8 3 2 2 2 3 4 3 3 3 4 4 2 3 3 2 2 2 2 3 4 2 1 3 5 5 7 10 9 10 9 10 8 6 5 5 5 6 5 5 6 7 3 2 2 5 4 6 8 9 7 7 6 7
3 5 5 6 5 4 3 2 3 3 4 3 3 3 2 2 3 1 3 3 3 2 3 6 4 7 6 7 7 8 8 6 6 5 4 4 6 6 1 4 5 8 8 2 2 4 5 5 8 8 9 10 9 9
3 5 4 5 5 5 7 6 5 4 4 4 3 2 1 0 2 2 3 4 2 3 4 4 5 6 5 8 7 9 10 7 7 5 6 7 4 3 1 4 4 8 10 9 3 3 7 7 7 8 9 9 10 10
5 7 9 11 5 6 7 6 5 6 4 3 1 1 0 1 2 4 3 2 3 3 4 4 4 7 4 6 10 10 8 7 7 4 1 4 5 5 2 6 5 5 4 4 4 4 5 4 7 9 9 9 11 11
4 2 2 3 3 2 1 3 3 2 2 2 2 2 2 0 3 3 5 2 2 4 4 3 3 4 6 7 9 7 5 4 4 4 4 7 5 3 5 7 8 4 6 2 4 6 6 6 6 7 8 7 8 9
3 2 4 5 2 2 3 5 4 3 2 2 1 5 4 4 3 3 5 5 6 4 6 7 6 6 6 5 5 4 3 2 1 2 4 4 1 2 4 4 2 5 3 4 5 5 4 5 6 6 6 6 5 6
3 3 3 6 5 4 3 4 4 3 3 2 3 1 1 3 3 4 4 5 5 4 7 8 5 0 2 8 10 9 8 5 7 10 10 5 4 3 2 4 4 4 5 5 8 7 5 5 6 6 6 5 4 4
4 2 1 4 3 4 3 2 1 3 4 2 2 2 2 3 4 4 4 4 1 3 3 2 7 6 5 7 8 10 10 9 8 7 8 6 2 4 5 5 5 4 3 3 4 3 6 5 4 3 4 3 3 4
2 1 2 0 1 2 3 3 2 2 1 1 2 1 2 3 4 3 3 4 5 5 7 7 8 7 8 7 6 6 7 6 7 9 6 3 6 6 6 6 5 5 6 7 5 2 1 1 2 3 4 6 7 7
2 2 3 2 1 3 2 3 4 3 1 1 2 1 4 5 5 6 6 5 6 6 5 6 6 4 4 4 5 5 7 2 4 5 8 5 5 5 5 5 6 6 6 6 6 6 7 6 2 1 3 8 8 8
3 4 3 2 4 2 3 2 3 2 3 2 2 2 2 6 6 7 9 8 2 3 4 4 4 5 7 7 6 5 5 4 4 2 3 6 7 6 4 3 4 4 6 5 6 6 8 8 7 8 7 7 7 6
Wind_Direction
286 289 291 290 290 286 285 283 282 280 280 283 286 286 288 285 274 198 265 251 215 274 287 264 293 274 336 330 323 302 345 348 15 42 124 218 163 241 343 264 301 179 132 164 82 2 266 7 350 4 294 288 129 93
296 294 292 290 288 283 282 281 280 278 276 276 276 278 280 274 265 216 274 284 320 233 251 303 273 256 245 240 291 308 233 267 287 34 350 321 342 24 81 265 342 349 182 183 150 215 247 290 222 271 348 277 308 128
292 288 286 284 282 280 278 276 274 273 273 272 272 275 275 271 270 206 240 290 325 278 290 251 254 268 229 214 194 207 286 213 31 181 277 267 328 92 18 291 314 346 333 79 31 267 271 271 158 44 33 27 344 251
290 291 288 285 283 283 280 276 272 271 271 267 264 268 272 270 267 253 190 226 286 274 264 281 342 303 293 267 210 216 241 313 11 72 233 262 273 52 233 238 176 223 350 149 289 288 312 275 102 8 18 5 29 59
291 293 294 290 285 280 278 276 270 266 264 267 266 272 271 274 272 247 236 222 222 245 290 298 306 275 253 226 213 230 205 202 143 340 4 259 273 34 317 240 254 183 184 167 219 222 190 265 305 255 52 21 29 38
293 295 296 298 297 291 286 280 268 265 255 254 260 258 265 275 236 152 297 299 217 207 298 305 277 281 289 232 224 227 186 163 159 159 213 246 281 99 274 258 267 223 222 194 220 206 243 270 297 272 89 25 336 351
297 296 293 296 297 292 286 280 266 260 253 252 264 246 236 231 184 194 222 302 344 133 248 297 285 265 236 202 238 153 142 182 143 194 204 209 308 62 245 221 249 218 216 265 264 266 277 212 241 220 102 47 358 334
308 301 293 298 301 312 313 291 262 268 231 251 250 185 209 178 334 304 281 199 157 227 235 266 275 301 196 170 180 187 159 89 273 193 44 170 166 162 248 244 251 233 204 219 237 229 261 273 340 344 69 59 0 335
318 306 303 302 303 309 333 49 69 100 126 127 149 150 134 144 189 224 291 310 247 183 256 259 273 288 343 316 149 18 113 123 242 179 202 128 233 214 223 213 246 211 198 235 215 245 278 222 128 83 51 89 6 301
326 315 313 310 313 313 328 216 158 135 116 128 43 115 203 211 162 33 32 4 352 291 282 244 266 278 346 337 301 114 144 207 209 230 123 176 240 243 240 237 238 238 215 173 158 261 279 296 335 60 77 132 198 286
332 333 329 337 323 298 246 151 133 131 110 21 310 302 352 173 133 177 170 187 183 247 221 225 213 228 286 249 287 193 195 200 185 249 152 221 243 231 228 236 246 240 193 212 219 218 222 66 68 47 15 54 308 311
320 331 336 334 328 316 191 171 154 119 178 220 171 141 161 214 186 209 204 219 210 241 211 197 215 189 255 204 248 297 249 74 235 130 151 247 239 242 239 231 234 242 150 154 134 120 121 117 86 94 52 25 312 279
314 321 329 337 347 345 178 167 171 181 95 190 70 11 28 205 188 202 197 223 247 226 241 217 246 185 265 327 302 277 197 247 332 230 221 229 241 248 240 224 239 202 156 143 158 136 127 117 80 68 45 352 296 238
334 325 312 346 60 55 103 113 138 158 231 216 158 280 224 200 245 195 223 206 231 280 296 287 304 192 212 166 204 235 237 48 303 276 245 261 276 271 251 226 148 149 147 154 150 139 136 117 109 88 60 10 43 307
305 316 298 265 153 101 99 66 18 42 127 238 176 241 218 228 259 195 242 240 256 250 352 6 346 271 251 225 201 239 233 238 218 235 244 296 306 309 299 189 167 159 156 160 153 144 144 138 125 117 108 248 18 343
302 308 234 196 167 139 124 8 343 21 297 243 233 265 269 284 284 215 233 258 276 322 346 53 227 275 249 207 186 216 219 232 274 261 272 305 342 338 341 17 83 111 129 151 160 151 152 159 170 155 150 146 175 202
288 240 237 190 155 144 145 46 15 216 247 253 251 224 257 277 247 246 216 233 221 76 225 63 264 233 287 219 227 220 215 240 225 319 338 322 339 325 297 27 126 125 107 145 166 163 158 165 158 160 170 186 181 169
226 222 236 175 146 129 192 206 266 268 248 245 246 254 252 232 253 277 260 192 122 199 141 216 196 251 246 223 244 284 306 332 53 335 317 341 1 339 233 200 180 163 153 157 169 155 153 163 166 170 176 170 170 139
221 198 225 158 163 153 165 207 184 257 249 259 269 279 260 262 246 246 232 224 173 185 136 288 239 216 230 251 50 314 323 134 269 287 306 343 6 358 327 237 169 146 151 156 177 161 155 162 163 154 149 145 131 126
248 210 190 181 183 139 170 249 53 259 269 259 270 268 238 238 246 237 237 221 151 155 192 218 230 235 205 230 202 216 245 264 304 325 299 341 16 4 333 287 254 164 141 155 160 149 136 137 131 133 137 135 141 152
117 150 136 162 148 178 238 244 236 236 271 264 278 295 263 262 248 237 245 165 148 207 222 213 225 256 297 298 260 232 277 290 266 219 251 290 266 294 293 305 279 323 287 184 207 174 154 165 145 137 145 157 157 157
97 160 124 149 116 158 240 225 243 294 254 267 299 215 261 283 284 272 331 260 227 228 204 6 285 302 308 289 269 254 241 251 248 244 247 261 267 280 280 276 161 198 223 234 202 192 191 177 145 149 157 151 137 135
154 134 71 82 154 193 275 328 236 235 252 249 228 241 234 255 249 358 260 252 264 241 211 243 260 251 254 274 264 259 238 236 246 241 247 241 251 254 250 251 231 179 142 314 230 157 159 170 155 143 140 131 136 134
115 160 178 182 182 203 181 245 250 250 245 227 238 264 244 253 330 263 258 250 247 297 317 290 285 294 288 263 265 267 258 219 229 230 220 236 263 263 233 234 186 156 121 104 277 173 126 128 123 134 148 149 152 148
164 208 184 192 185 221 195 189 210 225 253 218 247 242 259 128 272 258 256 269 284 287 282 301 291 271 260 278 281 275 259 183 191 212 254 229 220 134 169 277 186 150 135 138 239 175 133 142 136 144 139 142 153 159
251 194 196 185 178 211 194 181 215 211 207 224 233 29 190 262 283 285 269 294 284 292 301 308 331 341 340 314 316 317 12 133 158 145 25 61 73 74 95 141 116 105 78 122 172 194 145 134 130 141 141 144 148 145
274 309 261 271 182 255 311 100 143 197 228 170 165 186 218 348 1 314 287 276 295 247 222 255 266 285 283 309 304 317 8 22 95 118 88 78 75 52 27 83 76 56 50 84 214 200 140 155 137 137 135 134 150 158
250 290 299 301 353 328 5 352 5 46 49 62 125 24 33 18 353 263 240 250 238 258 274 280 264 244 245 252 233 245 295 315 318 87 97 87 117 147 106 81 91 127 168 198 157 126 124 112 112 128 142 149 161 171
292 277 1 348 2 36 25 10 355 332 149 113 84 74 263 243 234 241 259 229 264 283 300 315 325 107 77 68 52 47 44 45 74 66 60 51 51 21 106 131 159 158 137 97 79 87 130 147 147 163 178 178 190 177
277 148 356 354 32 27 319 117 335 340 30 79 117 23 321 267 249 226 253 283 299 267 267 85 54 55 51 61 58 44 35 45 53 75 85 66 1 323 27 18 32 54 57 80 111 84 45 66 63 101 140 171 180 190
253 88 331 103 99 230 188 183 156 109 82 50 352 46 297 294 316 314 349 360 11 30 48 48 52 47 58 46 53 59 42 6 39 65 83 74 44 42 43 36 26 32 39 38 53 77 214 216 215 226 236 227 217 204
345 264 154 133 201 243 116 160 159 134 204 131 243 313 337 11 9 342 348 48 49 51 52 74 76 53 80 90 76 83 117 103 66 67 68 70 60 50 47 36 28 32 37 38 36 29 24 20 330 292 80 82 76 63
20 2 30 47 10 46 334 83 60 136 144 121 344 36 14 78 55 357 5 11 71 116 118 122 138 149 143 137 146 151 148 154 156 130 89 96 101 88 64 44 35 36 39 37 36 45 46 51 56 63 69 76 77 72